{"data":{"norad_id":62186,"epoch":"2026-05-25T04:27:50.999616Z","epoch_age_seconds":59286,"freshness":"FRESH","line1":"1 62186U 24226B   26145.18600694 -.00000064  00000+0  11421-3 0  9993","line2":"2 62186  50.0050  53.1005 0012658   5.4855 354.6159 13.41498485 72625","mean_motion":13.41498485,"eccentricity":0.0012658,"inclination_deg":50.005,"raan_deg":53.1005,"arg_perigee_deg":5.4855,"mean_anomaly_deg":354.6159,"bstar":0.00011421,"rev_number":7262,"period_min":107.34264824757,"perigee_km":1094.2319208914,"apogee_km":1113.1729456006,"semimajor_km":7481.839433246,"source":"CELESTRAK","updated_at":"2026-05-25T13:38:02.828527Z"}}